Wind_Speed
58 60 62 63 65 67 70 72 74 76 78 80 82 84 86 88 90 93 94 96 97 99 100 102 105 107 110 112 114 116 117 119 120 121 122 123 124 124 124 123 121 119 117 115 113 112 111 110 110 109 108 108 107 107 106 105 104 103 103 102 101 100 99 98 98 98 98 98 99 99 99 99 99 99 99 99 99 101 102 102 101 100 98 98 99 99
60 62 64 65 67 70 72 74 76 78 81 83 85 87 89 91 93 95 96 98 99 101 102 104 107 110 112 114 115 116 118 119 120 121 122 122 122 120 118 116 114 112 111 110 109 109 108 108 107 106 105 105 104 104 103 102 102 101 100 100 99 99 98 97 96 96 96 96 97 97 98 98 98 99 99 100 100 101 103 104 105 104 102 101 101 101
62 64 66 68 70 72 75 77 79 81 84 86 88 90 92 93 95 96 98 100 102 103 105 106 108 110 113 115 116 117 118 119 120 119 119 117 115 113 111 109 108 108 107 107 106 106 105 104 104 103 102 101 100 99 99 98 98 97 97 97 96 96 95 95 94 94 94 94 94 95 96 97 98 98 99 100 100 101 103 105 106 107 106 105 104 104
65 67 69 71 73 75 77 80 82 84 86 88 90 92 94 96 97 99 101 102 104 105 107 107 108 111 114 116 117 117 117 117 115 113 111 109 108 107 106 106 106 105 105 104 103 102 101 101 100 99 98 97 96 95 95 94 94 94 94 93 93 92 92 91 91 91 91 91 92 93 94 95 97 98 98 99 100 101 102 104 106 108 109 109 108 107
68 70 72 74 76 78 80 82 84 86 88 90 92 94 96 98 100 101 103 104 105 107 108 108 109 110 114 116 115 114 112 110 108 106 105 104 104 103 103 102 102 101 100 100 99 98 97 97 96 95 95 94 94 93 92 92 92 92 92 91 91 90 90 89 89 89 89 89 89 90 91 93 95 97 98 99 100 101 102 104 106 108 110 111 111 110
71 73 75 77 79 81 83 85 87 89 91 93 95 96 98 100 101 102 104 105 106 108 109 109 109 109 110 111 109 107 105 103 102 102 102 101 100 100 99 98 97 96 96 95 94 94 94 94 94 94 94 93 93 93 93 92 92 92 91 91 90 90 89 88 88 88 88 88 88 88 89 90 92 94 96 99 100 101 102 104 106 108 110 112 113 113
74 76 77 79 81 83 85 88 90 92 93 95 96 98 99 100 102 103 105 106 108 109 109 108 107 104 103 103 101 100 100 99 99 99 98 97 97 96 96 95 94 93 93 92 92 92 92 92 93 93 94 94 94 94 93 93 92 92 91 91 90 90 88 87 86 86 86 87 88 88 87 87 88 90 93 97 99 101 103 104 105 107 109 111 113 115
76 78 80 82 84 86 88 90 91 93 94 96 97 98 100 102 103 104 106 107 107 107 107 105 102 98 96 97 96 96 97 96 96 96 96 95 95 95 95 94 94 93 93 92 92 92 92 92 92 93 93 94 94 93 93 92 92 92 91 91 91 90 89 87 86 84 83 83 85 87 87 86 86 87 90 93 96 100 102 104 105 107 109 111 113 115
79 81 83 85 87 88 90 91 92 93 95 96 98 100 101 102 104 104 105 105 104 103 102 99 97 95 93 95 95 94 95 95 95 96 96 96 96 95 95 94 94 93 93 93 92 92 91 91 91 92 92 93 92 92 91 91 91 90 90 90 90 90 89 88 86 84 81 80 81 83 85 86 85 85 87 90 94 97 100 103 106 107 108 111 113 115
82 84 85 87 88 89 90 91 93 94 96 98 99 100 101 102 103 102 101 100 98 97 97 96 95 94 93 94 94 94 95 96 96 97 97 97 96 95 94 94 93 93 93 92 92 91 90 90 90 90 90 91 91 90 89 89 89 89 88 88 88 88 88 87 86 84 81 79 78 79 81 84 85 85 85 87 91 95 97 101 104 107 109 110 112 114
85 86 87 88 89 89 90 92 94 95 97 98 100 100 100 100 98 97 96 94 93 93 93 94 95 95 95 95 94 95 96 96 96 96 96 95 95 93 92 92 92 91 91 91 91 90 89 88 88 89 89 89 89 88 87 87 86 86 86 85 85 86 86 87 87 85 83 80 78 78 78 80 82 84 84 85 88 92 96 98 102 105 109 110 112 114
86 87 87 88 89 90 91 93 94 96 97 98 98 98 97 95 93 92 91 90 90 90 92 94 95 96 97 97 96 96 96 96 95 95 95 94 93 91 91 90 90 90 90 90 91 90 89 88 88 88 88 88 88 87 86 85 85 84 84 83 83 83 83 84 86 86 85 82 79 78 78 78 80 82 84 84 86 89 93 97 100 102 106 110 112 113
86 87 88 88 90 91 92 93 94 96 96 95 95 93 93 92 90 89 88 87 88 89 91 93 95 96 99 100 99 97 96 95 94 94 94 93 91 90 90 90 89 89 89 90 90 90 90 89 88 88 88 87 87 86 85 84 84 83 82 81 81 80 81 81 83 84 85 83 80 78 77 77 78 80 82 84 84 86 90 94 98 101 103 107 111 113
85 87 88 89 91 92 93 93 93 93 92 91 90 90 89 88 87 86 86 86 87 88 90 92 94 96 99 101 100 98 96 94 92 92 93 93 91 90 90 89 88 88 88 88 89 90 89 88 88 87 87 86 86 85 84 83 82 81 81 80 80 79 79 79 79 81 82 83 81 78 77 76 76 78 80 83 84 85 87 90 95 99 102 104 108 112
86 87 89 89 90 91 91 90 89 88 87 87 87 86 85 85 86 87 87 87 86 86 89 91 93 95 98 101 100 96 95 94 90 88 91 92 91 89 89 89 88 87 87 87 88 89 88 87 87 86 86 85 84 83 82 81 80 79 79 79 79 79 78 77 76 77 79 80 79 77 75 74 75 75 78 81 84 85 86 87 91 95 100 103 105 109
86 87 88 88 88 88 87 86 86 85 85 84 83 83 83 84 86 88 88 88 88 87 87 89 90 92 96 100 98 93 92 92 88 85 88 91 90 89 88 88 87 86 86 87 87 88 88 87 85 85 84 84 83 82 82 81 80 79 78 78 79 78 78 76 75 75 76 78 78 77 74 73 73 74 75 78 82 84 85 86 88 91 96 100 104 106
85 85 85 85 84 84 84 84 84 83 81 81 81 82 84 85 87 89 89 89 89 88 86 87 86 87 93 98 94 89 89 89 86 84 86 89 89 88 87 87 86 85 85 85 86 86 86 85 84 83 82 82 82 81 81 80 79 79 78 78 78 78 76 74 73 73 74 76 77 76 75 73 71 72 73 75 79 82 84 85 86 88 91 96 101 104
81 81 81 81 80 81 82 81 81 80 79 80 82 84 86 87 88 90 90 90 90 89 86 85 82 83 91 96 91 87 88 86 84 84 85 87 88 87 86 85 84 83 83 83 84 85 84 83 82 82 81 81 81 81 80 80 79 79 79 78 78 76 74 72 70 70 71 74 76 76 75 74 72 71 71 73 75 79 82 84 84 86 88 92 97 101
77 77 78 78 78 79 79 78 77 77 79 81 84 86 88 89 90 91 92 92 92 89 86 83 78 78 89 94 88 88 88 85 83 84 85 87 89 87 85 84 83 81 81 82 83 84 83 82 82 82 81 81 81 81 80 80 80 80 79 79 78 76 74 71 68 67 68 70 73 75 75 74 73 71 71 71 73 75 79 82 83 84 86 88 92 97
75 75 75 76 76 75 75 76 76 78 80 82 85 88 90 92 92 93 93 93 93 90 87 83 75 75 87 91 86 88 89 85 85 85 86 89 90 89 87 85 83 81 81 82 83 84 83 82 82 82 82 82 81 82 82 82 81 81 80 79 78 77 75 72 69 67 66 67 70 72 73 73 73 71 71 71 72 73 75 78 81 83 84 86 89 93
73 73 73 74 73 72 73 75 76 79 82 84 87 90 92 94 94 94 94 93 93 90 88 85 76 74 86 89 86 89 89 86 88 87 86 89 91 90 88 86 83 81 81 82 83 83 83 82 83 83 83 82 82 82 83 83 82 81 80 79 78 78 76 73 71 68 66 65 67 69 71 71 71 71 70 70 71 72 73 75 78 80 82 84 87 90
71 71 71 71 71 71 73 75 78 81 83 85 87 90 93 94 96 96 94 93 91 87 86 86 79 77 85 88 87 89 88 87 90 88 86 89 90 90 88 86 83 81 81 82 82 83 82 82 83 83 83 83 83 83 83 83 83 82 81 80 79 78 77 74 72 69 67 65 65 67 69 70 70 70 69 69 69 71 72 73 75 78 80 81 84 87
69 68 69 70 70 72 75 77 79 81 83 85 87 90 92 94 97 98 96 93 89 84 83 84 81 79 84 87 89 88 86 88 91 89 87 89 90 90 88 86 83 81 81 82 82 82 81 82 82 82 82 83 83 84 84 84 83 82 81 80 80 78 77 75 72 70 68 66 64 65 66 67 68 68 69 68 68 68 70 72 73 75 77 80 82 84
66 66 68 70 71 73 76 79 81 82 83 84 86 89 91 93 97 97 96 95 89 83 82 83 83 81 82 87 90 86 84 88 90 88 88 88 89 89 88 86 83 82 81 81 81 80 81 80 81 81 81 82 82 83 83 83 83 82 81 80 80 78 76 74 72 70 69 67 65 64 64 64 65 67 68 68 67 67 68 70 72 74 75 78 80 82
65 67 70 72 72 74 76 79 81 82 82 83 85 88 90 93 96 96 95 94 88 83 81 83 86 82 81 88 91 86 85 88 88 88 88 87 88 89 88 85 83 82 81 81 80 80 80 79 79 79 80 81 82 82 82 82 82 81 80 79 79 78 76 74 72 70 69 67 65 64 63 62 63 64 66 67 68 67 67 68 70 72 74 75 78 81
66 68 72 75 75 75 77 79 80 81 80 82 84 87 90 94 95 95 94 92 88 84 80 84 89 83 80 88 90 86 87 88 86 87 87 87 88 88 86 84 82 82 82 81 80 79 79 79 79 79 80 81 82 82 82 81 81 80 79 79 78 77 75 73 71 70 69 67 65 63 62 62 61 62 64 66 67 68 68 67 67 69 72 74 76 78
67 69 73 76 76 77 78 80 81 80 79 81 83 86 92 95 95 95 94 91 90 88 83 85 90 85 81 87 87 85 87 87 84 86 86 87 88 87 84 82 82 83 83 81 80 79 79 79 79 80 81 81 82 82 81 81 80 79 78 78 77 76 74 72 70 69 68 66 64 63 62 61 61 61 62 64 66 67 68 68 67 67 69 72 74 76
69 70 73 75 75 76 79 80 81 79 79 80 82 87 93 96 96 95 92 92 93 93 89 88 91 88 86 89 88 85 87 86 85 86 87 88 88 87 84 82 83 84 83 81 80 80 80 80 81 81 81 82 82 82 81 81 79 79 78 78 77 76 73 71 69 67 66 65 64 62 61 61 61 61 61 62 64 65 66 67 68 67 67 69 72 74
71 71 73 74 73 75 78 80 80 79 78 78 82 89 95 98 98 94 92 93 96 95 94 92 91 89 91 93 91 87 87 87 86 88 89 89 89 87 84 83 84 85 83 82 81 81 81 82 81 82 82 82 82 82 81 80 79 79 78 77 76 75 72 70 68 67 65 64 63 62 62 61 61 62 61 61 62 64 64 66 67 67 66 67 69 71
73 72 73 73 71 73 77 79 79 78 76 76 81 89 95 99 99 95 92 95 98 97 96 95 92 89 90 93 92 88 87 86 86 88 89 90 90 88 85 84 85 85 84 84 83 83 84 83 83 83 83 83 82 82 81 80 79 78 77 77 76 74 72 70 68 67 65 63 62 62 61 61 61 62 62 61 62 62 63 64 65 66 66 66 66 68
75 74 74 74 71 70 75 77 77 76 74 75 80 88 95 98 97 94 93 95 98 98 97 95 92 88 88 92 91 88 86 85 85 87 88 89 90 87 84 85 85 85 85 85 85 85 85 84 84 84 84 84 83 82 80 79 78 78 77 76 75 74 72 70 68 66 64 63 62 61 61 61 61 61 61 61 61 62 62 62 63 64 65 65 65 66
76 76 75 76 73 70 72 75 74 73 73 75 80 87 93 95 94 92 91 92 96 99 98 94 91 89 89 90 89 87 86 84 84 85 88 89 88 86 85 84 84 84 85 85 85 85 85 85 85 85 85 84 83 82 80 78 78 77 77 76 75 73 72 70 68 65 63 62 61 61 60 60 60 60 60 60 61 61 61 60 61 62 63 64 65 65
77 77 77 77 75 71 72 74 72 72 74 76 81 89 92 91 91 90 88 89 93 97 97 94 90 89 90 90 89 87 85 84 84 86 89 89 87 85 85 85 84 84 85 85 85 84 84 84 85 85 84 84 83 82 80 78 77 76 76 75 73 72 71 69 67 65 62 61 61 60 60 59 59 59 59 59 60 61 60 60 59 60 61 62 63 64
76 78 78 78 76 73 74 75 73 73 75 78 83 90 91 89 89 89 87 87 92 97 97 92 89 88 90 90 90 88 86 84 85 86 90 90 87 85 85 86 86 85 84 84 84 84 84 84 84 85 85 84 83 81 79 77 76 76 75 74 72 71 70 68 67 64 62 61 60 59 59 58 58 58 58 58 58 59 59 59 59 59 60 60 61 63
77 78 79 79 78 76 76 77 75 74 75 80 87 92 91 89 90 90 87 86 92 97 96 91 88 88 89 89 89 88 86 85 85 87 91 90 88 87 87 87 87 86 85 86 85 84 84 84 84 85 84 83 82 80 78 77 76 75 74 73 71 69 69 68 66 63 61 60 59 58 57 57 57 57 57 57 57 58 58 58 58 58 59 60 61 61
78 79 80 81 81 80 80 79 79 77 75 79 88 91 90 89 90 91 87 83 89 96 95 90 88 89 89 89 88 88 87 86 85 87 91 91 89 89 89 88 88 88 88 88 87 86 85 84 84 85 85 84 82 79 78 77 75 75 74 72 70 69 68 67 65 62 60 59 59 57 56 56 56 56 56 55 56 56 56 56 56 57 58 59 60 61
79 81 82 82 83 84 83 82 81 80 77 80 87 88 87 88 89 90 87 82 85 92 92 89 89 89 89 90 89 88 88 87 85 86 90 91 90 90 90 89 90 90 90 89 88 87 87 86 86 86 85 84 82 79 78 76 75 74 73 71 69 68 68 67 64 62 60 59 58 57 56 55 55 55 55 55 55 55 55 55 54 55 56 58 59 60
80 81 83 84 85 86 86 85 83 82 81 85 88 87 87 89 90 92 89 83 83 88 90 90 91 90 91 91 90 90 90 88 86 87 90 90 89 89 90 90 91 91 91 91 90 89 88 88 87 86 85 84 82 79 77 76 75 75 73 71 69 68 68 67 64 61 60 58 58 56 55 55 54 54 54 54 54 54 54 54 53 53 55 56 57 58
80 82 83 85 86 87 88 87 86 85 85 88 89 88 89 91 91 93 90 84 83 87 89 90 91 91 92 92 92 92 92 91 89 89 90 90 89 90 91 91 92 93 92 92 91 90 89 88 87 85 84 82 80 79 77 75 75 74 72 70 69 68 68 66 63 61 59 58 57 56 55 55 54 53 53 52 53 53 53 53 53 52 53 54 55 57
80 82 83 84 85 87 88 88 86 86 88 90 90 90 91 92 92 93 91 86 85 88 89 90 90 91 93 94 93 93 93 94 93 92 93 92 92 92 93 93 94 94 94 93 92 91 89 88 86 84 82 80 79 77 75 74 74 73 71 70 69 68 68 66 63 60 58 57 56 55 55 54 54 53 52 52 51 51 51 51 52 52 51 52 53 55
81 83 83 84 85 87 88 88 87 86 87 89 90 91 92 93 92 92 91 89 90 91 92 92 92 93 95 95 94 94 94 95 95 95 94 95 95 95 95 95 96 95 95 94 92 90 88 87 85 84 82 79 77 75 74 73 73 72 70 69 68 68 68 66 63 61 59 58 57 55 54 54 53 53 52 51 50 50 49 49 51 51 51 51 51 53
84 84 83 84 86 87 87 88 89 88 86 88 90 92 93 93 93 93 92 92 93 94 95 95 94 96 96 96 95 95 94 95 95 96 96 97 97 97 98 98 97 96 95 93 91 88 87 85 84 83 81 79 77 75 73 72 71 71 69 68 68 68 67 66 64 62 60 59 57 56 54 53 52 52 51 50 50 49 49 48 49 50 50 50 51 51
85 85 85 86 87 88 87 89 91 91 89 90 92 93 94 94 94 94 93 92 92 94 96 96 95 96 97 96 95 95 95 96 96 96 97 98 99 100 99 99 98 96 94 91 89 87 85 84 83 82 80 79 77 74 73 72 70 69 68 67 67 67 67 66 64 62 61 60 58 56 54 53 51 51 50 50 49 49 49 48 48 49 49 50 50 50
85 86 86 86 87 88 89 90 92 93 93 94 94 94 95 94 94 95 95 93 92 93 95 96 96 97 98 98 97 96 96 96 97 97 98 99 100 100 99 98 96 94 92 90 88 86 84 83 82 81 80 78 76 74 73 71 70 68 68 67 67 67 67 65 64 63 62 60 58 57 55 53 51 50 50 50 49 49 49 48 48 48 48 49 50 50
85 86 86 86 87 88 89 91 92 92 93 95 95 94 94 93 93 95 95 95 94 94 96 97 97 97 98 99 98 97 96 97 98 98 100 100 100 100 99 97 95 93 91 89 87 85 84 83 82 80 79 78 76 74 73 71 69 68 67 67 66 66 66 65 64 63 62 60 58 57 56 54 53 51 50 50 49 49 48 48 48 48 47 47 48 50
85 86 86 86 86 86 87 89 90 90 92 95 96 95 94 93 93 93 95 96 96 96 96 97 97 97 97 98 98 98 98 99 100 100 101 101 101 100 98 96 93 92 90 88 86 84 83 82 81 80 78 77 75 74 73 71 69 67 66 66 66 66 65 64 63 62 61 59 58 57 56 56 54 52 51 50 49 49 48 48 48 48 47 46 47 48
86 86 87 86 87 87 87 88 88 87 89 93 94 94 95 94 93 93 94 96 96 96 96 96 97 98 98 99 100 100 100 102 102 102 102 102 101 98 96 94 92 91 89 87 85 84 83 82 80 79 77 76 75 74 73 71 68 66 65 65 65 65 64 63 62 62 61 59 58 57 57 56 55 54 52 50 49 49 48 47 47 48 47 46 46 47
87 87 87 87 87 88 89 89 88 86 86 89 92 93 94 94 93 92 94 95 96 96 97 97 99 100 100 100 101 102 102 103 103 103 102 100 99 96 94 92 90 89 87 86 84 83 82 81 80 78 77 76 75 74 72 70 68 66 65 65 65 64 63 62 61 61 60 59 58 58 57 56 55 54 53 51 49 48 48 47 47 48 47 46 46 46
89 89 89 88 87 88 89 90 90 86 82 83 85 87 88 90 90 91 93 94 96 97 98 99 99 100 101 102 103 103 103 103 103 102 100 98 96 94 92 90 89 87 86 84 83 82 81 80 79 77 76 75 74 73 72 70 68 67 66 65 64 62 61 61 61 60 60 58 57 57 57 56 55 54 53 52 50 48 47 47 46 47 47 46 46 46
90 90 91 90 89 89 89 90 91 89 86 84 85 85 86 88 90 91 93 95 96 98 98 99 99 99 101 103 104 104 103 103 102 100 98 96 94 92 90 89 87 86 84 83 82 81 80 79 78 77 76 75 74 73 72 70 68 67 66 65 63 62 61 60 60 60 60 58 57 56 56 55 55 54 53 52 51 49 47 46 45 46 47 46 45 45
91 92 93 93 91 91 91 91 92 93 92 92 91 90 90 91 92 93 95 96 97 98 98 99 99 99 100 102 103 104 103 101 99 97 95 93 92 91 89 88 86 85 84 82 81 81 80 79 77 76 75 75 74 73 72 70 68 66 65 65 63 62 61 60 59 60 59 58 56 56 55 55 54 53 52 51 50 49 48 47 45 45 46 47 46 44
Wind_Direction
273 274 275 276 278 279 279 280 281 281 282 282 282 282 282 283 283 284 284 285 285 286 288 288 289 290 291 291 291 291 291 291 292 292 292 292 292 292 291 291 291 291 291 290 290 290 289 289 289 288 288 288 287 286 286 285 285 284 283 282 281 279 278 277 275 273 272 271 269 268 266 265 263 262 260 258 256 255 254 253 251 249 247 245 244 242
274 275 276 278 278 279 280 280 281 281 281 281 282 282 282 283 283 284 285 286 287 288 289 289 290 290 291 291 291 291 291 292 292 292 292 292 291 291 291 291 291 291 291 290 290 290 289 289 289 288 288 287 287 286 286 285 284 283 282 281 280 279 278 276 275 273 272 270 269 267 266 264 263 261 259 257 255 253 252 251 251 249 247 244 243 242
276 276 277 278 278 279 279 280 280 281 281 282 282 283 283 284 285 286 287 288 288 289 290 290 291 291 291 292 292 292 292 292 292 292 292 292 292 292 292 292 291 291 291 291 290 290 290 289 289 288 287 287 286 285 285 284 283 283 282 281 280 279 277 276 275 273 271 269 268 266 265 264 262 260 259 257 255 253 251 250 249 249 247 245 243 242
276 277 277 278 278 279 279 280 280 281 282 283 284 285 286 287 287 288 289 289 290 290 291 291 292 292 293 293 293 293 293 293 293 293 293 293 293 293 292 292 292 292 291 291 291 290 290 289 289 288 288 287 287 286 285 285 284 283 283 282 280 279 278 277 275 273 271 269 267 265 264 262 261 260 258 256 255 253 251 249 248 247 247 246 244 241
277 278 278 279 279 280 280 281 282 283 284 285 286 287 288 289 289 290 290 291 291 292 292 293 293 294 294 294 294 294 294 294 294 294 294 294 293 293 293 293 292 292 292 292 292 291 291 291 291 291 290 290 290 289 288 288 287 286 285 284 283 282 280 279 277 275 273 270 267 265 263 261 259 259 257 256 254 253 251 249 247 246 246 245 244 242
278 279 280 280 281 282 283 284 285 286 287 287 288 289 289 290 291 291 292 292 293 293 294 294 294 295 295 295 295 295 295 295 295 295 294 294 294 293 293 293 293 293 293 293 293 293 294 294 294 294 293 293 292 292 291 291 290 289 288 286 285 284 282 280 279 277 275 273 270 267 264 261 259 257 256 255 254 252 251 249 248 246 245 244 244 243
280 281 282 283 284 285 285 286 287 288 288 289 290 291 291 292 292 293 294 294 295 295 295 295 295 296 296 295 295 295 295 295 295 295 295 295 295 295 295 296 296 296 296 296 296 296 296 296 296 296 295 295 294 294 293 292 292 291 289 288 286 285 283 281 279 278 276 275 273 270 266 263 260 258 256 254 253 252 251 249 247 246 245 244 243 243
282 283 284 284 285 286 287 287 288 289 290 291 291 292 293 293 294 295 295 296 296 296 297 297 297 297 296 296 296 296 297 297 298 298 298 299 299 299 299 299 299 299 299 299 298 298 298 297 297 296 296 295 295 294 294 293 292 291 290 289 288 286 285 283 280 278 276 274 273 271 269 265 262 259 256 254 252 251 251 249 248 246 245 244 242 242
283 284 285 286 287 288 289 289 290 291 291 292 292 293 294 295 295 296 297 297 298 298 298 298 298 298 298 298 299 300 301 301 302 302 303 303 302 302 302 301 301 301 300 300 299 299 298 298 297 296 296 295 295 294 294 293 293 292 291 289 288 287 286 284 282 280 277 274 272 271 270 268 264 260 257 255 253 251 250 249 248 246 245 244 243 241
284 285 286 288 289 289 290 291 291 292 292 293 293 294 295 296 297 297 298 299 299 299 299 299 300 301 302 302 303 304 304 304 304 304 304 303 303 302 302 302 301 301 300 300 299 299 298 297 297 296 296 295 295 295 294 294 293 292 291 290 289 288 287 286 285 283 280 277 274 271 270 268 266 262 258 255 254 252 250 248 247 247 245 243 242 242
286 287 288 289 290 290 291 291 292 293 293 294 295 296 297 297 298 299 299 300 300 300 301 302 303 304 304 305 305 305 305 305 305 304 303 303 302 302 302 301 301 301 300 300 299 299 298 298 298 297 297 296 296 295 295 294 294 293 292 291 290 289 288 287 286 284 283 280 277 274 271 269 267 264 260 257 254 252 251 248 247 246 245 244 243 241
287 288 289 290 290 291 292 292 293 294 294 295 296 297 298 299 299 300 300 301 301 302 304 304 305 306 306 305 305 305 305 305 305 304 303 302 302 302 302 301 301 301 301 301 301 301 300 300 299 299 298 298 297 297 297 296 295 294 292 291 290 289 288 287 286 285 284 282 279 276 273 270 267 265 262 259 255 252 250 249 248 246 245 244 243 242
288 289 290 290 291 292 292 293 294 295 296 297 298 299 300 300 300 301 301 302 303 304 305 305 306 306 306 306 306 305 305 305 305 304 303 303 303 303 303 303 303 303 303 303 302 302 302 301 301 300 300 300 299 299 298 297 296 295 294 293 291 290 288 286 285 284 283 282 280 277 274 271 268 265 263 260 257 253 250 249 249 247 245 244 243 243
289 290 290 291 292 293 294 295 296 297 298 299 300 300 301 301 301 301 301 302 303 304 305 306 306 307 306 306 305 305 306 306 305 305 304 304 304 304 304 304 304 304 304 303 303 302 302 302 302 301 301 300 300 299 298 298 297 296 295 294 293 291 289 287 286 284 283 282 280 278 275 272 268 265 263 261 258 255 252 249 248 248 247 245 243 243
289 290 291 292 293 294 295 296 297 298 299 300 300 300 301 301 301 301 301 302 303 305 305 306 307 307 306 305 304 306 306 305 305 305 304 304 304 305 304 304 304 304 304 304 303 303 303 302 302 302 301 301 300 300 299 299 298 298 297 296 295 294 292 289 287 285 284 282 281 278 276 272 269 266 263 262 260 257 254 251 248 247 246 246 244 243
289 291 292 293 295 296 296 297 298 299 300 300 301 301 301 301 302 302 303 303 304 305 306 306 307 307 306 303 304 306 306 305 306 306 304 304 304 305 305 305 305 305 305 304 304 303 303 303 302 302 302 301 301 301 301 300 300 299 299 298 297 296 294 292 289 287 285 283 282 280 277 273 270 267 264 262 260 258 256 253 250 247 246 245 245 243
291 292 294 295 296 297 297 298 299 300 301 301 302 302 302 302 303 303 304 304 304 305 306 306 308 308 305 302 304 307 305 305 306 306 304 304 305 305 305 305 306 306 305 305 304 303 303 303 303 303 302 302 302 302 302 301 301 300 299 299 298 297 295 293 291 289 286 285 283 281 279 276 272 268 265 262 260 259 258 255 252 249 246 245 245 244
292 294 295 296 297 297 298 300 301 302 302 303 303 303 303 303 304 304 304 304 304 305 307 308 309 309 304 302 306 307 304 305 306 306 305 305 305 305 305 305 306 306 306 305 304 303 303 304 304 304 304 303 303 303 302 302 301 301 300 300 299 297 296 294 291 289 287 286 284 282 280 278 275 271 267 263 260 259 258 256 254 251 248 246 245 244
293 294 295 296 298 299 300 301 302 303 303 304 304 304 304 304 304 304 305 305 305 306 308 309 312 312 306 304 308 307 305 307 308 307 307 307 306 306 306 306 307 307 308 307 306 305 305 306 306 306 305 305 305 304 303 303 303 302 302 301 300 298 297 295 293 291 288 286 284 282 281 279 276 273 269 266 262 259 257 256 255 253 250 248 245 244
294 295 296 297 299 300 301 302 304 305 305 305 305 305 305 305 305 305 305 306 306 308 310 310 313 316 308 306 309 308 307 309 310 309 310 309 308 308 308 308 309 310 310 309 307 307 307 308 308 307 307 307 306 306 305 304 304 304 303 302 301 300 299 297 295 293 290 287 284 282 281 279 277 274 271 267 264 261 258 256 255 253 251 249 247 245
295 296 297 298 300 302 303 304 305 306 306 306 306 306 306 306 306 305 305 306 307 310 312 311 315 318 311 309 311 309 309 312 311 311 311 310 309 309 309 310 311 312 312 310 309 309 309 310 309 309 308 308 307 307 306 305 305 304 304 303 302 301 300 299 297 295 292 289 286 283 281 279 277 274 271 268 265 263 260 257 256 254 252 250 249 247
296 297 299 300 302 304 305 306 306 306 306 307 307 307 306 306 306 305 306 307 308 312 313 312 316 318 313 311 312 310 312 314 312 311 312 311 310 310 311 312 313 314 313 311 310 310 311 311 310 309 309 309 308 307 306 306 306 305 305 304 303 302 301 300 298 296 294 290 287 284 281 279 277 275 272 269 266 264 262 259 257 256 254 252 250 248
297 299 301 303 305 306 307 307 306 307 307 307 308 307 307 307 306 306 307 308 310 314 314 313 315 316 314 313 311 311 315 314 311 312 313 312 311 311 311 313 314 314 313 311 311 311 311 311 310 310 309 309 308 307 307 307 307 306 306 305 304 302 301 300 299 297 295 292 288 285 282 280 278 276 273 271 267 264 262 260 258 256 255 254 252 249
300 302 303 305 306 307 307 307 307 307 307 308 309 308 309 309 307 307 308 309 312 316 315 315 315 314 315 314 311 314 316 313 312 313 313 312 312 312 312 314 315 314 313 311 311 311 311 310 310 309 309 308 308 307 307 307 307 307 306 305 304 303 302 301 300 299 296 294 290 287 283 281 279 277 275 273 270 266 263 261 260 257 255 254 253 252
303 305 305 305 306 307 307 307 307 307 308 310 310 310 310 309 307 308 309 310 314 316 317 317 314 314 317 314 312 316 316 312 313 314 313 313 312 312 313 314 315 314 312 312 312 312 311 310 309 309 309 309 308 308 308 308 307 307 306 306 304 303 303 302 301 300 297 295 292 289 285 282 280 278 276 274 272 269 266 262 260 259 257 255 253 252
305 306 306 306 307 307 307 307 306 307 310 311 311 312 311 308 308 309 309 312 315 316 318 318 313 314 318 313 314 318 315 313 315 315 313 313 312 312 313 315 315 314 312 312 312 312 311 311 310 310 310 310 309 309 308 308 307 307 307 306 305 304 303 302 302 300 298 295 293 290 287 284 281 278 276 274 273 271 269 265 262 260 258 256 254 252
306 307 306 306 308 309 308 308 307 310 312 312 314 313 310 308 309 310 312 316 317 317 319 318 313 315 317 314 315 317 314 314 316 314 313 313 312 312 314 316 315 313 313 314 313 313 313 312 312 312 312 311 310 309 309 308 308 308 307 306 305 304 304 303 302 300 298 296 294 291 289 286 283 280 277 275 273 271 270 268 265 261 259 257 256 254
306 306 306 307 308 309 309 308 309 312 313 315 317 314 310 309 310 311 315 318 318 317 319 317 315 317 318 316 316 317 315 316 317 315 314 313 312 314 316 317 316 314 314 315 315 314 314 314 314 313 313 312 311 310 310 309 309 309 308 307 306 305 304 304 302 300 298 297 295 293 291 288 285 282 279 276 274 272 271 269 267 264 261 258 257 255
305 306 306 307 309 310 309 309 311 313 315 319 318 314 311 310 310 314 318 319 318 318 318 317 317 319 321 318 317 318 318 318 318 316 315 314 314 315 317 318 316 315 316 316 316 316 315 315 315 314 313 312 311 311 311 310 310 310 309 307 306 305 305 305 303 301 299 298 297 295 293 290 287 284 281 278 276 273 272 270 268 266 263 260 258 256
305 306 306 307 309 310 309 310 312 314 318 321 318 313 310 310 311 316 320 319 317 317 317 316 318 321 322 318 316 318 318 319 319 317 316 315 315 316 319 319 317 317 317 317 317 317 316 316 316 315 314 313 312 312 311 311 311 310 309 308 307 306 306 305 304 302 300 299 298 296 294 291 288 285 283 280 277 275 273 270 269 267 265 263 260 258
306 307 307 308 310 310 309 310 312 316 321 321 316 311 309 309 312 317 319 318 317 316 316 316 319 322 320 316 316 318 318 319 319 317 315 315 315 317 320 318 317 317 317 317 318 317 317 317 316 315 315 314 313 312 312 312 311 310 310 308 307 307 307 305 304 302 301 300 298 296 294 291 288 286 283 281 279 276 274 272 269 268 267 265 262 259
307 308 308 308 310 311 310 310 313 318 321 318 313 308 307 309 313 316 318 318 316 315 315 316 320 322 318 315 316 318 318 319 318 317 315 315 316 319 319 318 318 318 318 318 318 317 317 317 316 316 315 314 314 313 312 312 312 311 310 309 308 308 307 305 303 302 301 300 298 296 293 291 289 286 284 282 280 278 275 273 271 269 267 266 264 261
308 308 309 308 310 313 313 312 316 320 320 316 311 307 307 311 314 315 317 317 315 314 314 317 321 320 316 316 317 318 319 320 319 318 316 315 318 320 319 318 318 318 318 318 317 317 317 317 316 316 315 314 314 313 313 313 312 311 310 308 308 307 306 305 303 303 302 300 298 296 294 292 289 287 285 283 281 279 277 275 273 271 268 266 265 263
309 308 309 310 312 315 315 315 319 321 319 316 311 307 309 313 315 315 317 318 316 313 314 319 321 318 316 317 318 318 320 320 320 319 317 316 319 320 319 319 318 318 318 318 317 318 317 317 317 316 315 315 314 314 314 314 313 311 309 308 308 307 306 305 304 303 302 300 298 296 294 292 290 288 286 284 282 280 279 277 275 273 271 268 266 263
309 310 311 313 315 317 317 318 320 320 320 317 311 309 312 316 316 315 317 319 316 314 316 319 319 317 316 318 318 319 320 321 321 320 317 318 320 320 319 319 319 319 319 318 318 318 318 318 317 317 316 315 314 314 314 314 313 311 310 309 309 308 307 305 304 304 303 300 298 297 295 293 291 289 287 285 283 281 279 277 276 274 272 270 267 265
311 312 314 316 318 318 318 320 320 320 321 316 310 311 315 316 316 315 317 319 317 314 317 319 318 317 318 318 319 320 320 321 322 320 317 319 320 320 320 320 319 320 319 319 319 319 319 319 318 317 317 316 315 315 314 314 313 311 310 309 309 309 307 306 305 304 303 301 299 297 296 294 292 290 288 286 284 282 280 278 276 274 272 270 268 266
314 315 316 317 318 318 319 320 320 320 320 313 309 313 316 316 315 314 317 321 319 316 317 318 317 318 319 319 320 320 321 321 322 320 318 319 320 320 320 320 320 320 319 319 320 320 320 320 319 318 317 316 315 315 315 314 313 312 311 310 310 309 308 306 306 305 304 302 300 298 297 295 293 291 290 288 285 283 280 278 276 274 271 270 268 267
315 316 317 318 319 319 319 320 320 320 318 313 313 317 318 316 316 316 318 322 320 317 317 318 319 320 320 319 320 321 321 322 322 320 319 319 320 320 319 320 320 320 320 321 321 321 321 321 320 318 317 316 315 315 315 315 314 312 311 311 311 310 308 306 306 305 304 302 300 299 298 296 294 292 290 288 286 283 281 279 277 274 271 269 268 267
316 316 317 318 319 319 319 320 320 320 317 316 317 319 318 317 317 317 319 323 321 318 318 319 320 320 320 320 322 322 322 322 322 321 320 320 321 320 320 321 321 321 321 321 322 322 321 320 319 318 316 316 315 315 315 315 314 312 312 311 311 310 308 307 306 306 304 303 301 300 298 296 295 292 290 288 286 283 281 280 277 274 272 269 268 267
316 316 317 319 320 319 319 319 320 319 318 318 320 320 318 318 318 318 321 323 322 320 319 320 321 321 321 321 323 323 323 322 322 322 321 321 322 322 322 322 322 322 322 322 322 321 320 320 319 317 316 316 315 315 315 315 313 312 312 312 311 310 308 307 307 306 305 303 302 300 299 297 295 293 291 288 286 284 282 280 278 275 273 270 268 267
316 316 318 320 320 319 319 319 319 318 319 320 320 320 319 319 320 321 322 324 323 321 321 322 323 322 322 322 323 323 323 322 322 322 322 322 322 322 322 322 322 322 322 321 321 321 320 319 318 317 316 316 316 316 315 314 313 312 312 312 311 310 308 307 307 307 306 304 303 301 299 297 295 293 292 289 287 285 282 280 279 277 274 272 269 267
317 318 320 321 320 319 320 320 318 319 321 321 320 320 320 321 322 323 324 324 324 323 323 323 323 322 322 322 323 323 323 322 322 322 322 322 323 323 322 322 322 322 321 321 320 320 319 319 318 317 317 316 316 316 315 314 313 313 313 313 311 310 308 308 308 308 307 305 304 302 300 298 296 294 292 291 289 286 284 281 279 277 276 273 270 268
318 320 322 321 320 320 321 320 319 321 324 323 322 322 322 323 324 324 324 324 324 323 322 323 322 322 321 322 323 323 323 322 322 322 322 322 322 322 322 322 321 321 320 320 320 320 319 319 318 317 317 316 316 316 315 314 314 314 313 313 311 310 309 308 309 308 307 306 305 303 301 299 297 295 293 292 290 288 285 282 280 277 276 274 272 269
319 321 321 321 321 322 322 322 322 324 325 324 323 323 323 324 324 324 324 324 324 322 322 322 322 322 322 322 323 323 323 322 322 322 322 322 322 321 321 321 321 321 321 320 320 320 320 319 318 317 317 316 316 316 315 315 315 315 314 313 311 310 309 309 309 309 308 307 305 304 302 300 298 296 295 293 291 288 286 284 281 278 276 274 273 271
321 321 321 321 322 323 323 323 323 325 325 323 323 323 323 324 325 324 323 323 323 322 322 322 322 322 322 322 322 322 322 322 322 323 322 322 322 322 321 321 321 321 321 321 320 320 320 319 318 318 317 317 317 316 316 315 315 315 314 313 312 310 310 310 310 309 307 307 306 305 303 301 299 298 295 294 292 289 287 285 282 280 277 275 274 272
321 321 321 322 322 322 323 323 323 325 325 324 323 323 324 324 324 323 323 322 322 322 322 322 321 321 321 321 322 323 323 323 323 323 323 323 322 322 322 322 322 321 321 321 321 320 320 319 318 318 317 317 317 317 316 315 315 315 314 313 312 311 310 310 309 308 307 307 306 305 303 302 300 299 297 295 292 290 288 286 283 281 278 276 274 273
322 321 321 322 322 322 323 323 324 326 326 324 323 323 323 323 324 323 323 322 321 321 321 321 321 322 322 323 323 323 324 323 323 323 323 323 322 322 322 322 322 321 321 321 321 320 320 319 318 318 318 318 317 316 316 315 316 316 314 313 312 311 311 310 309 308 307 306 306 304 303 302 301 299 298 296 293 291 289 287 285 283 280 278 275 273
322 321 322 323 323 323 323 323 324 326 326 324 323 323 323 323 323 323 322 321 321 321 322 323 323 323 323 323 323 323 324 323 323 323 323 322 322 322 322 322 321 321 321 321 321 320 319 319 319 318 318 318 317 316 316 316 316 316 315 313 312 311 311 310 308 307 307 306 306 304 303 302 301 300 298 296 294 292 290 288 287 284 282 280 277 275
322 322 322 323 324 324 324 324 324 325 325 323 321 321 321 321 321 321 321 321 322 323 323 324 323 323 323 323 323 323 323 323 323 323 322 322 322 321 322 321 321 321 321 321 321 320 319 319 319 319 318 318 317 316 316 316 316 316 314 313 312 311 311 309 309 308 307 306 305 304 303 302 301 300 298 297 295 293 290 289 287 285 283 281 279 277
322 323 323 323 324 324 324 324 324 324 324 322 321 322 322 321 322 322 322 323 323 323 323 323 322 322 322 322 322 323 323 323 322 322 322 322 322 322 322 321 321 322 322 321 321 320 320 319 319 319 319 318 317 317 316 316 316 316 314 313 312 312 311 310 309 308 307 306 305 304 303 302 301 299 298 297 295 294 291 290 288 286 285 282 279 277
323 323 323 323 324 325 325 325 325 325 325 325 324 324 324 323 324 324 324 324 324 323 322 322 321 322 322 322 322 323 323 323 323 323 323 323 322 322 322 322 322 323 322 322 321 321 320 320 320 319 319 318 317 317 316 316 316 315 314 313 313 312 311 311 310 308 307 306 306 304 303 302 300 299 298 297 296 294 293 291 288 286 285 284 281 278
Height
10585 10583 10580 10579 10577 10574 10571 10568 10565 10561 10558 10555 10551 10548 10545 10542 10539 10535 10532 10529 10525 10521 10516 10510 10503 10495 10488 10483 10476 10470 10464 10457 10451 10444 10438 10431 10424 10418 10412 10406 10400 10395 10389 10383 10378 10372 10367 10362 10358 10353 10349 10344 10340 10336 10332 10330 10327 10324 10322 10320 10318 10317 10317 10317 10316 10315 10315 10314 10314 10314 10316 10317 10319 10321 10323 10326 10329 10330 10332 10334 10339 10344 10348 10351 10354 10358
10579 10577 10575 10573 10571 10568 10564 10561 10558 10554 10550 10547 10543 10540 10536 10533 10530 10526 10523 10520 10515 10511 10507 10501 10494 10485 10477 10471 10464 10458 10451 10444 10438 10431 10425 10417 10410 10404 10398 10392 10386 10380 10375 10369 10364 10359 10353 10348 10343 10339 10335 10330 10326 10321 10317 10314 10311 10308 10306 10304 10301 10300 10299 10299 10298 10298 10297 10297 10297 10297 10297 10299 10300 10302 10304 10307 10310 10312 10314 10316 10319 10324 10329 10334 10337 10340
10573 10571 10569 10567 10564 10561 10558 10554 10550 10546 10542 10538 10534 10531 10527 10524 10521 10517 10513 10509 10504 10500 10495 10490 10484 10475 10465 10457 10451 10445 10438 10431 10424 10417 10410 10403 10396 10390 10384 10378 10372 10366 10361 10355 10350 10345 10339 10334 10329 10325 10321 10316 10312 10308 10304 10300 10297 10293 10290 10288 10285 10283 10282 10281 10280 10280 10280 10280 10279 10279 10280 10280 10281 10283 10285 10287 10290 10293 10295 10298 10300 10304 10308 10314 10319 10322
10566 10564 10562 10560 10557 10554 10551 10547 10543 10539 10535 10531 10526 10522 10518 10513 10510 10507 10502 10497 10492 10487 10482 10478 10473 10464 10452 10442 10437 10430 10423 10416 10409 10402 10396 10389 10383 10377 10371 10364 10358 10352 10346 10341 10335 10330 10324 10319 10314 10310 10305 10301 10296 10293 10289 10285 10281 10277 10274 10271 10269 10267 10265 10264 10263 10262 10261 10261 10261 10261 10262 10262 10262 10263 10266 10268 10270 10273 10276 10279 10282 10285 10288 10293 10299 10304
10559 10556 10554 10552 10549 10546 10543 10539 10535 10531 10527 10523 10518 10514 10509 10504 10499 10495 10490 10485 10480 10474 10468 10464 10460 10453 10438 10427 10422 10415 10407 10402 10394 10387 10382 10376 10369 10363 10357 10351 10345 10339 10333 10327 10321 10315 10309 10303 10298 10293 10288 10284 10279 10275 10272 10268 10264 10261 10257 10254 10252 10249 10248 10246 10245 10243 10243 10242 10242 10242 10243 10244 10244 10245 10246 10249 10251 10254 10257 10260 10262 10266 10269 10273 10279 10285
10551 10549 10546 10543 10540 10537 10533 10530 10526 10522 10517 10513 10508 10504 10499 10494 10488 10483 10477 10472 10467 10460 10455 10449 10446 10443 10428 10414 10409 10402 10393 10389 10382 10374 10368 10362 10356 10350 10344 10338 10332 10326 10320 10314 10308 10302 10296 10290 10284 10278 10272 10268 10263 10258 10255 10251 10247 10244 10240 10237 10234 10232 10231 10229 10227 10226 10224 10223 10223 10223 10224 10225 10227 10228 10228 10230 10232 10234 10237 10240 10243 10247 10250 10254 10259 10264
10544 10541 10538 10535 10532 10528 10524 10520 10516 10511 10507 10502 10497 10492 10487 10482 10476 10470 10464 10458 10453 10446 10440 10434 10429 10428 10419 10404 10397 10391 10381 10376 10369 10361 10355 10348 10342 10336 10329 10323 10317 10312 10306 10300 10294 10288 10283 10277 10270 10264 10258 10253 10248 10243 10239 10235 10231 10226 10223 10220 10217 10215 10213 10212 10211 10210 10208 10206 10204 10203 10205 10207 10209 10211 10211 10212 10213 10214 10217 10221 10224 10227 10231 10235 10240 10244
10536 10533 10530 10526 10523 10519 10515 10511 10506 10501 10496 10491 10486 10481 10475 10470 10465 10459 10453 10446 10439 10431 10425 10419 10413 10411 10406 10393 10387 10381 10370 10363 10356 10348 10341 10334 10327 10321 10314 10308 10302 10297 10291 10286 10280 10275 10269 10264 10257 10251 10245 10240 10235 10230 10225 10220 10216 10211 10207 10203 10199 10196 10195 10194 10194 10193 10193 10191 10188 10185 10185 10187 10190 10192 10194 10194 10195 10197 10198 10201 10205 10209 10212 10215 10220 10224
10528 10525 10521 10517 10513 10510 10505 10501 10496 10491 10486 10480 10475 10470 10464 10458 10452 10447 10441 10433 10426 10418 10411 10405 10399 10396 10392 10380 10373 10368 10358 10349 10342 10333 10326 10319 10312 10307 10300 10294 10289 10283 10277 10272 10267 10261 10256 10251 10245 10239 10233 10227 10222 10217 10212 10207 10201 10197 10192 10188 10184 10180 10177 10176 10175 10175 10175 10175 10173 10171 10169 10169 10170 10173 10175 10176 10176 10178 10181 10182 10185 10189 10193 10196 10200 10205
10519 10516 10512 10509 10504 10500 10496 10491 10486 10481 10475 10469 10464 10459 10454 10448 10441 10435 10429 10422 10415 10407 10398 10391 10384 10380 10376 10367 10358 10354 10345 10336 10329 10321 10314 10306 10300 10295 10289 10282 10277 10271 10265 10259 10254 10249 10244 10239 10233 10227 10220 10214 10209 10204 10199 10194 10188 10183 10178 10174 10169 10165 10162 10159 10157 10156 10156 10157 10157 10156 10154 10152 10152 10154 10157 10158 10158 10159 10162 10164 10166 10169 10173 10178 10182 10186
10510 10507 10503 10499 10495 10491 10486 10481 10476 10471 10465 10459 10452 10447 10442 10436 10431 10424 10417 10410 10404 10396 10387 10378 10370 10364 10359 10354 10348 10342 10334 10327 10319 10312 10304 10296 10289 10284 10278 10272 10266 10260 10253 10247 10241 10236 10232 10226 10220 10214 10208 10202 10196 10191 10187 10182 10176 10170 10165 10160 10156 10151 10147 10144 10141 10139 10139 10139 10139 10139 10138 10137 10136 10136 10137 10140 10141 10142 10143 10145 10148 10150 10154 10158 10163 10167
10501 10497 10493 10490 10485 10481 10477 10471 10466 10460 10455 10449 10442 10436 10430 10425 10420 10413 10407 10400 10393 10386 10377 10368 10361 10353 10344 10340 10337 10331 10323 10318 10310 10300 10293 10286 10279 10273 10267 10261 10254 10248 10241 10233 10227 10221 10216 10211 10205 10199 10193 10188 10182 10177 10172 10167 10162 10157 10152 10148 10143 10138 10134 10131 10127 10124 10122 10122 10122 10121 10121 10121 10120 10119 10119 10121 10123 10125 10126 10127 10130 10133 10136 10139 10143 10149
10492 10488 10483 10480 10475 10471 10466 10462 10457 10450 10444 10438 10431 10425 10418 10412 10407 10402 10396 10390 10383 10377 10369 10360 10352 10343 10332 10324 10321 10316 10311 10307 10299 10288 10279 10273 10267 10261 10254 10248 10242 10236 10228 10221 10213 10207 10202 10197 10191 10185 10179 10173 10168 10163 10158 10153 10148 10143 10137 10133 10129 10125 10121 10118 10114 10110 10107 10106 10105 10105 10105 10104 10104 10103 10102 10103 10105 10107 10109 10111 10112 10115 10118 10122 10125 10129
10482 10478 10474 10470 10465 10460 10456 10451 10446 10441 10435 10428 10421 10415 10408 10400 10395 10391 10387 10382 10377 10370 10361 10352 10344 10335 10323 10311 10305 10303 10298 10294 10288 10277 10266 10259 10254 10249 10242 10236 10231 10225 10218 10210 10202 10196 10190 10186 10179 10173 10167 10161 10156 10151 10146 10140 10136 10130 10124 10119 10114 10110 10106 10103 10100 10096 10093 10090 10089 10088 10088 10088 10088 10087 10086 10085 10087 10089 10091 10094 10096 10098 10101 10105 10108 10111
10474 10469 10465 10461 10456 10451 10446 10441 10436 10431 10426 10419 10412 10406 10399 10391 10384 10379 10375 10371 10368 10364 10356 10345 10337 10327 10313 10298 10293 10294 10287 10280 10278 10270 10256 10246 10242 10238 10231 10225 10220 10214 10207 10199 10192 10185 10179 10174 10168 10162 10156 10150 10144 10139 10134 10128 10123 10118 10113 10107 10101 10096 10092 10088 10085 10082 10078 10075 10073 10072 10072 10072 10071 10071 10071 10070 10070 10071 10073 10076 10079 10081 10083 10086 10090 10094
10466 10461 10457 10452 10447 10442 10436 10432 10427 10422 10416 10410 10403 10396 10389 10383 10375 10368 10364 10358 10354 10354 10350 10341 10332 10321 10303 10286 10283 10285 10277 10267 10266 10261 10248 10237 10232 10227 10220 10214 10209 10203 10196 10188 10181 10174 10168 10163 10158 10151 10145 10139 10133 10127 10121 10115 10111 10106 10101 10095 10089 10083 10078 10074 10070 10067 10063 10060 10057 10056 10056 10056 10056 10056 10056 10055 10054 10054 10056 10059 10062 10064 10067 10069 10071 10075
10457 10452 10447 10443 10438 10432 10427 10422 10417 10411 10406 10399 10392 10385 10378 10373 10366 10358 10353 10349 10343 10341 10341 10335 10329 10317 10293 10276 10278 10277 10266 10258 10255 10250 10240 10229 10223 10218 10210 10204 10199 10193 10186 10178 10170 10163 10158 10152 10147 10141 10135 10128 10122 10116 10110 10104 10099 10094 10089 10084 10078 10073 10067 10063 10058 10053 10049 10045 10042 10040 10039 10039 10040 10040 10041 10040 10039 10038 10039 10042 10045 10048 10050 10053 10054 10057
10448 10444 10437 10433 10429 10423 10418 10413 10407 10402 10395 10389 10381 10374 10367 10362 10356 10348 10342 10338 10332 10330 10331 10327 10323 10310 10281 10266 10272 10266 10254 10251 10247 10239 10230 10221 10213 10208 10202 10195 10189 10184 10176 10167 10159 10151 10146 10141 10135 10129 10123 10117 10111 10105 10099 10093 10088 10083 10078 10073 10067 10062 10057 10053 10048 10042 10037 10032 10028 10025 10024 10023 10024 10025 10025 10026 10025 10024 10024 10025 10027 10030 10033 10036 10038 10040
10439 10435 10429 10424 10420 10415 10409 10403 10399 10393 10386 10379 10371 10362 10356 10350 10344 10338 10331 10325 10319 10317 10319 10318 10316 10300 10269 10258 10262 10251 10241 10240 10235 10227 10219 10209 10201 10196 10191 10185 10179 10173 10165 10156 10147 10139 10134 10129 10122 10116 10110 10105 10099 10093 10087 10081 10076 10071 10065 10060 10054 10049 10045 10041 10037 10033 10027 10021 10016 10012 10010 10008 10008 10009 10009 10010 10010 10010 10009 10009 10011 10014 10016 10019 10022 10024
10430 10426 10422 10416 10412 10407 10402 10395 10390 10384 10377 10370 10361 10352 10344 10337 10331 10325 10319 10312 10306 10304 10302 10303 10309 10292 10258 10250 10252 10237 10228 10228 10222 10215 10207 10195 10187 10181 10177 10172 10167 10161 10153 10143 10134 10127 10121 10116 10109 10103 10097 10091 10086 10079 10074 10068 10063 10058 10052 10047 10041 10035 10031 10027 10024 10021 10017 10011 10006 10001 9998 9995 9994 9994 9994 9994 9995 9995 9995 9995 9995 9997 10000 10003 10005 10008
10421 10418 10413 10409 10405 10400 10394 10388 10381 10375 10368 10361 10352 10341 10332 10324 10317 10312 10309 10302 10295 10292 10285 10283 10294 10284 10250 10240 10239 10224 10218 10216 10207 10202 10196 10184 10174 10168 10164 10159 10154 10149 10141 10131 10123 10115 10109 10103 10096 10090 10084 10078 10073 10066 10061 10055 10050 10045 10039 10034 10028 10021 10017 10013 10009 10007 10004 10000 9994 9990 9986 9983 9981 9980 9979 9979 9979 9979 9980 9980 9981 9982 9984 9987 9989 9991
10414 10411 10406 10401 10397 10392 10386 10380 10373 10366 10359 10351 10343 10332 10321 10312 10302 10296 10296 10293 10287 10284 10274 10266 10274 10270 10244 10232 10226 10214 10209 10205 10194 10189 10185 10174 10164 10157 10152 10147 10142 10138 10129 10120 10112 10104 10099 10092 10084 10078 10071 10065 10060 10054 10048 10042 10037 10032 10026 10020 10015 10008 10003 9999 9995 9993 9990 9987 9983 9978 9974 9971 9969 9967 9966 9965 9965 9965 9965 9966 9967 9967 9969 9971 9973 9976
10408 10404 10398 10393 10389 10384 10378 10371 10365 10358 10351 10343 10334 10322 10312 10302 10290 10281 10279 10279 10279 10277 10266 10255 10257 10257 10240 10224 10214 10208 10204 10195 10184 10178 10173 10163 10154 10146 10140 10136 10131 10126 10118 10109 10102 10095 10089 10082 10074 10067 10061 10054 10048 10042 10036 10030 10024 10019 10013 10008 10001 9996 9991 9986 9982 9979 9976 9973 9970 9966 9963 9959 9957 9954 9952 9951 9951 9951 9951 9951 9952 9953 9954 9955 9957 9960
10401 10396 10391 10386 10382 10377 10369 10361 10355 10349 10342 10335 10325 10312 10302 10291 10279 10272 10267 10264 10267 10267 10257 10245 10240 10242 10236 10217 10203 10201 10198 10186 10174 10169 10162 10152 10144 10136 10130 10126 10121 10115 10107 10099 10093 10087 10080 10073 10066 10059 10053 10046 10039 10032 10026 10019 10013 10007 10001 9995 9989 9983 9978 9974 9970 9966 9962 9958 9956 9953 9951 9948 9945 9941 9939 9937 9937 9937 9937 9937 9938 9939 9940 9941 9942 9944
10394 10389 10382 10377 10375 10371 10364 10355 10347 10341 10335 10328 10317 10303 10292 10279 10268 10265 10260 10255 10256 10256 10250 10236 10223 10228 10228 10206 10192 10193 10187 10176 10167 10158 10150 10142 10134 10126 10120 10116 10111 10104 10096 10090 10084 10078 10071 10064 10058 10051 10044 10037 10029 10022 10015 10009 10003 9996 9990 9983 9976 9971 9966 9962 9958 9953 9949 9945 9942 9939 9937 9936 9933 9929 9926 9924 9923 9922 9922 9923 9924 9924 9926 9927 9928 9929
10387 10382 10373 10367 10365 10361 10355 10348 10340 10335 10330 10321 10310 10296 10282 10269 10261 10256 10251 10248 10245 10242 10243 10229 10209 10216 10221 10197 10184 10183 10173 10165 10160 10148 10138 10131 10123 10117 10112 10107 10101 10092 10085 10080 10074 10067 10061 10054 10047 10040 10033 10025 10017 10011 10005 9998 9992 9986 9979 9972 9965 9959 9954 9950 9947 9941 9936 9933 9929 9926 9924 9922 9920 9917 9914 9911 9909 9908 9908 9909 9910 9911 9911 9912 9914 9915
10380 10376 10366 10360 10357 10351 10344 10337 10330 10328 10323 10312 10302 10287 10269 10257 10253 10247 10242 10240 10232 10225 10231 10223 10200 10201 10208 10191 10179 10176 10162 10154 10151 10139 10128 10121 10112 10107 10103 10098 10091 10081 10074 10069 10062 10056 10049 10042 10035 10028 10021 10013 10006 9999 9993 9987 9981 9974 9968 9960 9953 9948 9943 9939 9936 9930 9924 9920 9916 9914 9911 9908 9907 9904 9901 9899 9896 9895 9894 9894 9895 9897 9897 9898 9899 9901
10373 10369 10361 10354 10352 10344 10335 10327 10322 10320 10315 10305 10293 10275 10256 10246 10242 10238 10235 10230 10220 10210 10211 10209 10193 10188 10188 10176 10168 10165 10153 10144 10138 10126 10116 10109 10100 10095 10093 10087 10078 10069 10063 10057 10050 10044 10037 10030 10023 10016 10009 10002 9994 9988 9981 9975 9969 9962 9955 9949 9942 9936 9932 9928 9924 9919 9913 9909 9904 9902 9899 9895 9893 9890 9888 9886 9884 9883 9882 9881 9881 9882 9884 9885 9886 9887
10364 10362 10355 10349 10347 10339 10326 10319 10315 10311 10307 10299 10284 10262 10245 10235 10229 10229 10229 10220 10208 10200 10194 10190 10184 10179 10170 10157 10152 10150 10141 10132 10126 10114 10103 10094 10087 10083 10081 10074 10065 10056 10050 10045 10038 10032 10025 10019 10012 10005 9998 9990 9983 9976 9970 9963 9957 9950 9943 9937 9930 9925 9921 9917 9912 9907 9903 9899 9894 9890 9887 9883 9880 9877 9875 9874 9872 9870 9869 9868 9867 9868 9869 9871 9872 9873
10353 10353 10348 10343 10343 10335 10320 10312 10309 10304 10301 10293 10275 10253 10235 10225 10220 10221 10222 10210 10196 10189 10184 10176 10173 10173 10162 10144 10138 10139 10132 10123 10115 10103 10092 10083 10075 10072 10070 10062 10053 10046 10039 10032 10026 10019 10012 10006 10000 9993 9986 9978 9971 9965 9959 9952 9946 9939 9932 9925 9919 9914 9910 9906 9901 9896 9892 9889 9885 9880 9876 9872 9868 9864 9862 9861 9860 9858 9856 9856 9854 9854 9855 9857 9859 9860
10343 10342 10339 10334 10336 10332 10318 10308 10304 10299 10295 10286 10269 10248 10229 10218 10216 10216 10214 10203 10187 10176 10173 10167 10163 10164 10156 10139 10131 10129 10124 10117 10109 10096 10085 10075 10067 10063 10061 10052 10043 10036 10029 10022 10015 10008 10001 9995 9988 9981 9974 9967 9960 9954 9948 9942 9935 9928 9921 9914 9908 9903 9899 9894 9890 9886 9883 9879 9875 9870 9865 9861 9857 9853 9850 9849 9847 9845 9844 9844 9843 9842 9842 9843 9845 9847
10333 10331 10328 10323 10325 10325 10313 10303 10300 10295 10290 10280 10262 10243 10226 10217 10215 10214 10210 10200 10182 10166 10161 10159 10157 10153 10143 10132 10125 10121 10115 10109 10101 10089 10077 10067 10060 10056 10051 10043 10035 10028 10020 10013 10006 9999 9992 9985 9978 9971 9963 9955 9949 9943 9937 9931 9925 9917 9910 9904 9898 9893 9888 9883 9879 9876 9873 9869 9864 9860 9855 9850 9846 9843 9839 9837 9835 9833 9832 9832 9831 9830 9830 9830 9831 9833
10326 10321 10317 10312 10312 10314 10304 10295 10294 10290 10281 10271 10252 10231 10221 10218 10214 10209 10206 10198 10179 10161 10152 10151 10151 10142 10129 10120 10116 10111 10106 10100 10091 10079 10066 10056 10054 10049 10041 10033 10027 10020 10012 10005 9997 9991 9984 9976 9968 9960 9952 9945 9938 9931 9926 9920 9914 9907 9899 9893 9889 9884 9878 9872 9868 9865 9862 9858 9853 9849 9845 9840 9836 9832 9829 9827 9824 9822 9821 9820 9819 9818 9818 9817 9817 9818
10318 10311 10306 10301 10299 10301 10293 10285 10285 10282 10271 10259 10240 10221 10214 10215 10208 10200 10199 10192 10173 10154 10146 10145 10142 10132 10119 10112 10104 10098 10096 10090 10080 10069 10055 10045 10043 10039 10031 10023 10015 10010 10004 9996 9988 9981 9974 9966 9958 9949 9941 9934 9926 9920 9915 9909 9903 9896 9889 9883 9878 9873 9867 9861 9857 9854 9851 9847 9842 9838 9834 9830 9826 9822 9819 9816 9813 9811 9810 9809 9808 9806 9806 9805 9804 9805
10308 10301 10296 10291 10287 10286 10281 10275 10273 10272 10264 10246 10222 10209 10206 10204 10196 10187 10188 10185 10163 10142 10137 10138 10132 10121 10111 10104 10095 10087 10084 10080 10072 10059 10044 10035 10032 10026 10019 10012 10004 9998 9992 9985 9978 9971 9963 9955 9947 9937 9929 9922 9915 9909 9903 9898 9892 9885 9878 9872 9867 9862 9856 9850 9846 9843 9840 9836 9831 9827 9824 9819 9815 9811 9808 9806 9803 9800 9799 9798 9797 9795 9794 9793 9792 9792
10298 10291 10285 10280 10276 10271 10268 10265 10259 10258 10257 10238 10212 10202 10200 10194 10185 10176 10179 10181 10160 10134 10128 10128 10121 10111 10103 10095 10087 10079 10072 10069 10065 10051 10034 10026 10022 10014 10007 10001 9993 9986 9980 9972 9966 9960 9951 9944 9935 9925 9917 9909 9903 9898 9892 9886 9880 9873 9867 9861 9856 9851 9844 9839 9835 9832 9828 9824 9820 9817 9813 9809 9805 9801 9798 9795 9792 9790 9789 9788 9786 9785 9783 9781 9780 9780
10288 10282 10275 10270 10266 10259 10254 10254 10248 10244 10243 10227 10207 10202 10197 10186 10177 10166 10167 10174 10157 10130 10121 10118 10109 10101 10093 10083 10077 10071 10062 10058 10056 10045 10028 10019 10014 10005 9996 9990 9983 9976 9969 9961 9954 9946 9938 9931 9922 9913 9905 9897 9891 9886 9880 9874 9868 9861 9855 9850 9845 9840 9833 9827 9824 9821 9817 9813 9809 9806 9802 9798 9795 9791 9787 9785 9782 9780 9778 9777 9776 9775 9773 9771 9769 9769
10281 10275 10268 10261 10257 10249 10242 10240 10236 10231 10226 10210 10196 10193 10185 10173 10164 10153 10152 10160 10147 10124 10113 10107 10097 10090 10081 10072 10066 10059 10051 10045 10043 10035 10021 10011 10006 9998 9988 9981 9973 9965 9957 9948 9941 9934 9925 9918 9911 9902 9894 9886 9879 9874 9869 9863 9856 9849 9843 9839 9834 9828 9822 9817 9814 9810 9806 9802 9798 9795 9791 9788 9785 9781 9778 9775 9772 9770 9768 9767 9766 9765 9763 9761 9759 9759
10275 10268 10262 10254 10248 10241 10231 10227 10222 10215 10207 10194 10185 10180 10170 10159 10152 10142 10140 10145 10135 10117 10105 10096 10088 10080 10070 10061 10055 10047 10038 10030 10026 10021 10010 10001 9996 9987 9978 9970 9961 9952 9945 9936 9929 9922 9914 9907 9899 9891 9883 9876 9869 9863 9857 9851 9844 9837 9832 9827 9822 9817 9811 9807 9804 9800 9796 9792 9788 9785 9781 9777 9775 9772 9768 9765 9762 9760 9758 9756 9755 9754 9753 9752 9750 9749
10269 10261 10256 10249 10242 10232 10223 10217 10212 10204 10193 10182 10174 10168 10157 10148 10141 10130 10125 10126 10119 10107 10096 10087 10079 10070 10058 10049 10043 10035 10027 10016 10008 10004 9995 9986 9981 9974 9965 9958 9949 9941 9933 9925 9917 9911 9904 9896 9888 9880 9873 9866 9860 9853 9848 9841 9834 9828 9822 9817 9812 9806 9800 9795 9793 9790 9786 9781 9778 9775 9771 9767 9764 9761 9759 9756 9753 9750 9749 9746 9744 9743 9742 9742 9741 9739
10261 10254 10249 10243 10234 10225 10216 10207 10200 10196 10188 10175 10164 10155 10145 10136 10130 10120 10112 10108 10100 10090 10082 10073 10066 10056 10046 10038 10032 10025 10018 10007 9997 9990 9982 9974 9967 9961 9953 9945 9937 9930 9922 9914 9907 9900 9893 9885 9877 9869 9862 9855 9850 9844 9838 9832 9825 9818 9812 9807 9801 9795 9789 9784 9782 9778 9774 9771 9767 9764 9761 9757 9754 9751 9748 9746 9743 9740 9739 9737 9734 9732 9732 9731 9731 9729
10249 10244 10241 10234 10223 10215 10208 10197 10185 10183 10181 10169 10155 10145 10134 10124 10117 10108 10101 10094 10084 10073 10065 10059 10053 10043 10034 10028 10022 10014 10007 9999 9989 9980 9972 9963 9955 9948 9941 9933 9926 9919 9911 9904 9897 9889 9882 9874 9865 9857 9851 9844 9839 9834 9828 9822 9815 9808 9803 9797 9791 9785 9779 9774 9771 9767 9763 9759 9756 9753 9750 9747 9744 9741 9738 9735 9733 9730 9729 9728 9725 9722 9721 9721 9720 9719
10239 10234 10231 10224 10212 10205 10199 10187 10173 10166 10163 10154 10142 10132 10122 10113 10105 10097 10091 10086 10077 10064 10054 10049 10044 10034 10023 10018 10013 10006 9997 9988 9980 9971 9963 9954 9945 9937 9929 9922 9914 9907 9900 9892 9885 9878 9870 9863 9854 9846 9840 9833 9828 9823 9817 9811 9806 9799 9793 9787 9781 9774 9768 9764 9760 9756 9752 9748 9745 9741 9739 9736 9733 9731 9727 9725 9722 9720 9718 9717 9715 9713 9712 9710 9709 9709
10233 10226 10221 10213 10203 10194 10186 10175 10163 10155 10147 10137 10129 10121 10111 10102 10095 10085 10078 10075 10070 10061 10049 10040 10035 10026 10014 10005 10001 9996 9988 9978 9970 9962 9953 9945 9936 9927 9919 9911 9902 9895 9887 9880 9872 9865 9858 9851 9843 9836 9829 9822 9817 9812 9805 9800 9795 9789 9783 9777 9771 9765 9758 9754 9750 9745 9741 9738 9734 9730 9727 9724 9722 9720 9717 9715 9712 9710 9708 9707 9705 9704 9703 9701 9699 9698
10227 10220 10212 10205 10196 10187 10177 10165 10156 10151 10139 10126 10118 10112 10105 10098 10089 10077 10067 10062 10057 10051 10041 10031 10024 10017 10007 9996 9989 9985 9978 9968 9959 9952 9943 9933 9925 9915 9906 9899 9890 9882 9875 9868 9860 9853 9846 9839 9831 9825 9818 9811 9806 9801 9794 9789 9785 9780 9774 9767 9761 9755 9749 9744 9740 9735 9731 9728 9724 9720 9716 9713 9711 9709 9708 9705 9703 9700 9698 9697 9695 9694 9693 9692 9689 9687
10219 10211 10203 10197 10189 10182 10175 10163 10152 10146 10134 10118 10108 10101 10094 10090 10084 10073 10062 10053 10046 10040 10032 10023 10014 10007 9999 9989 9979 9973 9966 9956 9947 9940 9931 9921 9912 9903 9894 9887 9879 9871 9863 9856 9849 9842 9835 9828 9821 9814 9808 9801 9795 9790 9784 9779 9775 9771 9764 9758 9752 9745 9740 9735 9730 9725 9722 9718 9714 9710 9707 9703 9700 9698 9697 9695 9693 9690 9688 9687 9684 9683 9683 9682 9680 9677
10210 10202 10194 10188 10180 10171 10166 10159 10151 10145 10132 10114 10102 10094 10086 10080 10076 10067 10056 10046 10038 10032 10025 10016 10006 9996 9988 9979 9968 9960 9954 9944 9934 9927 9920 9909 9900 9892 9884 9876 9868 9861 9853 9846 9839 9832 9825 9817 9811 9804 9798 9791 9785 9779 9773 9768 9765 9761 9755 9748 9742 9737 9731 9726 9721 9717 9713 9709 9705 9701 9698 9694 9690 9687 9686 9684 9683 9680 9678 9676 9674 9672 9671 9671 9670 9668
10199 10192 10185 10180 10172 10162 10153 10146 10141 10140 10131 10112 10097 10087 10078 10070 10066 10060 10050 10039 10031 10023 10015 10005 9994 9984 9976 9968 9958 9950 9943 9935 9924 9916 9909 9899 9890 9882 9874 9867 9859 9851 9844 9836 9829 9822 9815 9807 9801 9794 9788 9782 9775 9769 9763 9758 9754 9750 9745 9738 9733 9728 9723 9718 9713 9708 9703 9700 9696 9692 9688 9685 9681 9678 9675 9674 9672 9671 9668 9666 9664 9662 9660 9661 9659 9657
10187 10180 10173 10168 10164 10154 10144 10135 10128 10129 10130 10119 10105 10094 10083 10071 10063 10056 10045 10034 10023 10012 10003 9995 9986 9975 9965 9957 9949 9940 9933 9925 9915 9905 9898 9889 9880 9872 9864 9857 9849 9842 9834 9827 9820 9812 9804 9797 9791 9784 9778 9771 9765 9759 9753 9748 9744 9740 9734 9728 9724 9719 9714 9709 9704 9698 9694 9691 9687 9683 9679 9675 9672 9669 9666 9663 9662 9660 9658 9657 9655 9652 9650 9650 9649 9647
10175 10168 10160 10155 10152 10145 10137 10128 10117 10111 10111 10107 10098 10089 10079 10067 10057 10047 10036 10025 10014 10003 9994 9986 9979 9971 9960 9948 9938 9930 9923 9915 9905 9896 9888 9879 9869 9861 9854 9846 9839 9832 9824 9816 9809 9801 9794 9787 9781 9775 9768 9761 9755 9749 9743 9738 9734 9729 9724 9718 9714 9710 9705 9700 9695 9689 9684 9682 9679 9674 9670 9666 9662 9659 9657 9654 9651 9649 9648 9646 9645 9643 9640 9640 9640 9638
10165 10157 10148 10140 10137 10131 10124 10116 10106 10094 10086 10081 10075 10068 10061 10052 10044 10034 10023 10014 10004 9994 9985 9977 9969 9962 9954 9943 9931 9920 9912 9905 9895 9886 9878 9869 9859 9850 9842 9834 9827 9820 9813 9805 9798 9791 9783 9777 9771 9765 9759 9751 9745 9739 9733 9728 9724 9719 9713 9708 9704 9699 9695 9691 9686 9680 9675 9671 9669 9665 9661 9657 9653 9650 9647 9645 9642 9639 9637 9635 9635 9634 9632 9629 9628 9629